Back to catalog

FENGYUN 1C DEB

LostSSO
NORAD 36156·DEBRIS·🇨🇳 China

Launched May 10, 1999 from Taiyuan Satellite Launch Center

Loading…

Next Passes (next 24 hours)

TLE

StaleSource: Space-Track

Epoch: Sep 22, 2022, 11:19 UTC

1 36156U 99025DSD 22265.47173818  .00003086  00000-0  11556-2 0  9999
2 36156  98.7257 353.3993 0046446 297.5882 120.7293 14.31876868721423

Track FENGYUN 1C DEB in real time with AllMySat

Download on the App Store